Terminal Aerodrome Forecast
Issued by NWS Pittsburgh, PA

Current Version | Previous Version | Graphics & Text | Print | Product List | Glossary On
Versions: 1 2 3 4 5 6 7 8 9 10 11 12 13 14 15 16 17 18 19 20 21 22 23 24 25 26 27
000
FTUS41 KPBZ 221800 AAA
TAFPIT
TAF AMD
KPIT 221832Z 2219/2324 31008G16KT P6SM SCT008 BKN015
      TEMPO 2218/2220 2SM -TSRA BKN008CB
     FM222100 30012G22KT P6SM BKN035
     FM230200 33007KT P6SM BKN025
     FM231500 34010G18KT P6SM BKN040=

USA.gov is the U.S. government's official web portal to all federal, state and local government web resources and services.